TimeCST,TemperatureF,Dew PointF,Humidity,Sea Level PressureIn,VisibilityMPH,Wind Direction,Wind SpeedMPH,Gust SpeedMPH,PrecipitationIn,Events,Conditions,WindDirDegrees,DateUTC
12:15 AM,32.0,30.2,93,29.59,1.5,NNE,23.0,27.6,N/A,Snow,Light Snow,30,2013-02-27 06:15:00
12:35 AM,32.0,30.2,93,29.59,1.2,NNE,17.3,25.3,N/A,Snow,Light Snow,30,2013-02-27 06:35:00
12:55 AM,32.0,30.2,93,29.58,1.2,NNE,15.0,24.2,N/A,Snow,Light Snow,20,2013-02-27 06:55:00
1:15 AM,32.0,30.2,93,29.58,1.2,NNE,17.3,24.2,N/A,Snow,Light Snow,30,2013-02-27 07:15:00
1:35 AM,32.0,30.2,93,29.58,1.2,NNE,17.3,20.7,N/A,Snow,Light Snow,20,2013-02-27 07:35:00
1:55 AM,32.0,30.2,93,29.58,1.0,NNE,17.3,26.5,N/A,Snow,Light Snow,20,2013-02-27 07:55:00
2:15 AM,32.0,30.2,93,29.57,1.0,NNE,16.1,21.9,N/A,Snow,Light Snow,20,2013-02-27 08:15:00
2:35 AM,32.0,30.2,93,29.57,1.0,NNE,15.0,21.9,N/A,Snow,Snow,20,2013-02-27 08:35:00
2:55 AM,32.0,30.2,93,29.56,1.0,North,15.0,21.9,N/A,Snow,Snow,10,2013-02-27 08:55:00
3:35 AM,32.0,30.2,93,29.56,1.5,North,15.0,-,N/A,Snow,Light Snow,10,2013-02-27 09:35:00
3:55 AM,32.0,30.2,93,29.56,1.5,North,12.7,-,N/A,Snow,Light Snow,10,2013-02-27 09:55:00
4:55 AM,32.0,30.2,93,29.56,2.0,North,13.8,19.6,N/A,Snow,Light Snow,10,2013-02-27 10:55:00
5:15 AM,32.0,30.2,93,29.56,1.5,North,12.7,-,N/A,Snow,Light Snow,10,2013-02-27 11:15:00
5:35 AM,32.0,30.2,93,29.56,1.5,North,11.5,-,N/A,Snow,Light Snow,10,2013-02-27 11:35:00
5:55 AM,32.0,30.2,93,29.56,1.8,North,10.4,-,N/A,Snow,Light Snow,350,2013-02-27 11:55:00
6:45 AM,30.2,28.4,93,29.57,0.8,North,13.8,23.0,N/A,Snow,Light Snow,359,2013-02-27 12:45:00
7:45 AM,30.2,28.4,93,29.59,0.8,North,11.5,19.6,N/A,Snow,Light Snow,350,2013-02-27 13:45:00
9:45 AM,30.2,28.4,93,29.58,0.5,North,13.8,-,N/A,Snow,Snow,350,2013-02-27 15:45:00
10:45 AM,32.0,30.2,93,29.58,1.0,North,9.2,-,N/A,Snow,Light Snow,350,2013-02-27 16:45:00
11:45 AM,33.8,30.2,87,29.58,1.0,North,11.5,17.3,N/A,Snow,Light Snow,10,2013-02-27 17:45:00
12:45 PM,33.8,30.2,87,29.58,1.5,North,11.5,17.3,N/A,Snow,Light Snow,10,2013-02-27 18:45:00
1:45 PM,33.8,30.2,87,29.59,0.5,North,10.4,17.3,N/A,Snow,Snow,360,2013-02-27 19:45:00
2:45 PM,33.8,30.2,87,29.61,1.0,North,10.4,18.4,N/A,Snow,Light Snow,360,2013-02-27 20:45:00
3:45 PM,32.0,30.2,93,29.62,1.0,North,12.7,18.4,N/A,Snow,Light Snow,360,2013-02-27 21:45:00
4:45 PM,32.0,30.2,93,29.64,2.0,North,12.7,16.1,N/A,Snow,Light Snow,350,2013-02-27 22:45:00
5:45 PM,32.0,30.2,93,29.66,5.0,North,10.4,-,N/A,,Overcast,360,2013-02-27 23:45:00
6:45 PM,32.0,30.2,93,29.69,2.5,North,11.5,-,N/A,Snow,Light Snow,350,2013-02-28 00:45:00
7:45 PM,32.0,30.2,93,29.69,3.0,North,11.5,16.1,N/A,Snow,Light Snow,350,2013-02-28 01:45:00
8:15 PM,32.0,30.2,93,29.70,4.0,North,11.5,-,N/A,Snow,Light Snow,350,2013-02-28 02:15:00
8:35 PM,32.0,30.2,93,29.70,3.0,NNW,12.7,-,N/A,Snow,Light Snow,340,2013-02-28 02:35:00
8:45 PM,32.0,28.4,87,29.70,3.0,NNW,11.5,17.3,N/A,Snow,Light Snow,340,2013-02-28 02:45:00
8:55 PM,32.0,30.2,93,29.71,7.0,North,10.4,-,N/A,Snow,Light Snow,350,2013-02-28 02:55:00
9:15 PM,32.0,30.2,93,29.71,7.0,North,10.4,19.6,N/A,,Overcast,350,2013-02-28 03:15:00
9:35 PM,32.0,30.2,93,29.71,10.0,North,12.7,17.3,N/A,,Overcast,350,2013-02-28 03:35:00
9:55 PM,32.0,30.2,93,29.72,10.0,North,13.8,17.3,N/A,,Overcast,350,2013-02-28 03:55:00
10:15 PM,32.0,30.2,93,29.72,10.0,North,13.8,18.4,N/A,,Overcast,350,2013-02-28 04:15:00
10:35 PM,32.0,30.2,93,29.72,10.0,North,12.7,-,N/A,,Overcast,350,2013-02-28 04:35:00
10:55 PM,32.0,30.2,93,29.72,7.0,North,12.7,-,N/A,,Overcast,350,2013-02-28 04:55:00
11:15 PM,32.0,30.2,93,29.72,7.0,North,11.5,-,N/A,,Overcast,350,2013-02-28 05:15:00
11:35 PM,32.0,30.2,93,29.73,10.0,North,13.8,18.4,N/A,,Overcast,350,2013-02-28 05:35:00